Temp
17 16 16 16 16 16 17 17 17 17 17 18 18 18 19 19 19 19 19 18 18 18 18 18 18 18 18 18 18 18 18 18 18 18 18 18 18 17 17 17 17 17 17 17 17 17 17 17 18 18 18 18 18 18 18 18 18 18 18 18 18 17 17 17 15 14 15 15 16 16 16 15 16 16 16 16 16 15 15 15 15 15 15 15 15
16 16 16 16 16 17 17 17 17 17 17 18 18 18 19 19 19 19 19 18 18 18 18 18 18 18 18 18 18 18 18 18 18 18 18 18 18 18 17 17 17 17 17 17 17 17 17 17 18 18 18 18 18 18 18 18 18 18 18 18 18 18 18 18 16 15 15 15 16 16 16 15 16 16 16 16 16 16 16 15 15 15 15 15 15
15 15 15 16 17 17 16 16 17 16 17 18 18 18 19 19 19 19 18 18 18 18 18 18 18 18 18 18 18 18 18 18 18 18 18 18 18 18 18 18 17 17 17 17 17 17 17 18 18 18 18 18 17 17 17 18 18 18 18 18 19 18 18 18 18 16 15 15 15 16 16 15 16 16 16 16 17 16 16 16 16 15 15 15 15
14 15 15 16 16 16 16 16 16 16 17 18 18 18 19 19 19 19 18 18 18 18 18 18 18 18 18 18 18 18 18 18 18 18 18 18 18 18 18 18 18 18 18 18 17 17 17 18 18 18 18 18 17 18 18 18 19 19 19 19 19 18 18 18 19 18 16 15 16 16 16 16 16 16 16 16 16 16 16 16 16 16 15 15 15
14 14 15 15 15 16 16 15 15 16 17 18 18 18 19 19 19 19 18 18 18 18 18 18 18 18 18 18 18 18 18 18 18 18 18 18 19 19 18 18 18 18 18 18 17 17 17 18 18 18 18 18 18 18 19 19 19 19 19 20 19 18 18 19 19 19 18 17 16 16 16 16 16 16 16 16 16 16 16 16 16 15 15 15 15
13 14 14 15 15 15 15 15 15 16 17 18 18 18 19 19 18 19 18 18 18 18 18 18 18 18 18 18 18 18 18 18 19 19 19 19 19 19 19 18 18 18 18 18 17 17 18 18 18 18 18 18 18 19 19 19 19 19 19 20 19 19 19 19 19 19 19 18 18 16 16 16 16 16 16 16 16 16 16 15 15 15 15 15 15
14 14 14 14 14 15 15 14 15 16 16 17 18 18 18 19 18 18 18 18 18 18 18 18 18 18 18 18 18 18 18 18 19 19 19 19 19 19 19 18 18 18 18 18 18 17 18 18 18 18 18 18 19 19 19 19 19 19 19 20 19 19 19 19 19 19 19 18 17 17 17 16 16 16 16 16 16 16 16 15 15 15 15 15 15
14 14 14 14 14 14 14 14 14 15 15 16 17 17 18 18 19 18 18 18 18 18 18 18 18 18 18 18 18 18 18 18 19 19 19 19 19 19 19 19 19 18 18 18 17 17 17 17 18 18 18 19 19 19 19 19 19 19 19 19 19 19 19 19 19 19 18 18 17 17 17 16 16 16 16 15 14 15 15 15 15 16 16 16 16
14 14 14 14 14 14 14 14 14 14 14 15 15 16 17 17 18 19 18 18 18 18 18 18 18 18 18 18 18 18 18 18 18 18 18 19 19 19 19 19 19 18 18 18 18 17 17 18 18 18 18 18 19 19 19 19 19 19 18 18 19 19 18 18 18 18 18 17 17 17 16 16 16 15 15 15 15 16 16 15 15 16 16 16 16
13 14 14 14 14 14 14 14 14 14 14 14 15 16 16 16 18 19 18 18 18 18 18 18 18 18 18 18 18 18 18 18 18 19 18 19 19 19 19 19 18 18 18 18 18 18 18 18 18 18 18 18 18 19 19 19 19 19 18 18 18 18 18 18 18 18 17 17 17 17 16 16 16 16 16 16 16 16 16 15 15 16 16 15 15
12 13 14 14 14 14 14 14 14 13 14 14 14 16 16 15 17 18 18 18 18 18 18 18 18 18 18 18 18 18 18 18 18 19 19 18 18 19 19 19 18 18 18 18 18 17 17 18 18 18 18 18 18 18 18 18 18 18 18 18 18 18 18 17 17 17 17 16 16 16 16 16 16 16 16 16 16 16 16 15 15 15 15 13 14
10 11 13 13 14 14 13 14 14 13 14 14 14 16 16 14 16 18 18 17 18 18 18 18 17 17 17 17 18 18 18 18 18 18 19 18 18 18 18 18 18 18 18 18 18 17 17 17 17 17 17 17 17 17 17 17 17 17 17 17 17 17 17 17 17 17 17 16 16 16 16 16 16 16 16 16 16 16 16 15 15 15 15 14 13
9 9 11 12 13 13 13 13 13 13 14 14 14 15 15 14 15 17 17 17 17 17 17 17 17 17 17 17 17 17 17 17 18 18 18 18 18 18 18 18 18 18 18 17 17 17 17 17 17 17 17 17 17 17 17 17 17 17 17 16 16 16 16 16 16 16 16 15 15 15 15 15 15 15 15 15 15 15 14 14 15 15 14 14 14
8 8 10 11 12 12 13 13 13 13 14 14 14 15 14 13 14 17 16 16 17 17 16 16 16 16 16 17 17 17 17 17 17 17 18 18 18 18 18 17 17 17 17 17 17 17 17 17 17 16 16 16 16 16 16 16 16 16 16 16 15 15 15 16 15 15 15 15 14 14 14 14 14 14 14 14 14 14 13 13 13 14 14 13 13
7 7 8 9 10 11 11 12 13 13 13 14 13 13 13 12 14 15 16 16 16 16 15 15 15 15 16 16 16 16 16 16 16 17 17 17 17 17 17 17 17 16 16 16 16 16 16 16 16 16 15 15 16 16 16 16 16 16 15 15 15 15 15 15 15 14 14 14 14 14 13 13 13 13 13 13 13 13 12 12 12 13 13 13 13
7 7 7 8 9 9 10 11 12 12 13 13 13 13 13 13 13 14 15 15 15 15 15 14 15 14 15 15 16 16 15 16 16 16 16 17 17 17 17 16 16 16 16 16 16 16 16 16 16 16 15 15 15 16 16 16 16 16 15 15 14 14 14 14 14 13 13 13 13 13 13 13 13 13 13 13 13 12 12 12 12 13 13 13 13
6 6 7 7 8 9 9 9 10 11 11 12 12 12 12 12 12 13 13 14 13 14 13 13 13 14 14 14 15 15 14 15 15 16 16 16 16 16 16 16 15 15 15 15 15 15 15 15 15 15 15 15 15 15 15 16 16 15 15 14 14 13 13 13 13 13 12 12 12 12 13 13 13 13 13 13 13 12 12 12 12 13 12 12 12
6 7 7 7 7 8 9 8 8 9 9 10 10 10 10 10 11 11 12 12 12 12 12 12 12 12 13 13 13 14 13 13 14 15 15 16 16 15 15 15 14 14 14 14 14 14 14 14 14 14 14 14 14 14 14 14 15 15 14 14 13 13 13 13 13 13 13 13 13 13 13 13 13 13 13 13 13 12 12 11 12 12 11 11 11
7 7 7 7 7 8 9 9 8 8 8 8 9 9 9 9 9 10 10 10 11 11 11 12 11 11 12 12 12 13 13 12 13 14 14 15 15 15 14 14 13 13 13 13 13 13 12 12 12 12 12 12 12 13 13 13 13 14 13 13 13 13 12 12 12 13 13 13 13 13 13 13 12 12 12 12 12 12 11 11 11 11 11 11 11
7 7 7 7 7 7 8 9 9 9 8 8 8 9 9 10 10 10 10 10 10 10 11 11 11 10 11 11 11 11 12 12 12 12 13 13 14 14 13 13 12 12 12 12 12 11 11 11 11 11 11 11 12 12 12 12 12 12 12 12 12 12 12 12 11 12 12 12 12 12 11 11 11 11 11 11 11 11 11 11 11 10 10 10 10
8 8 8 8 8 7 7 8 8 9 9 9 9 9 9 10 10 10 10 10 10 10 10 10 10 9 9 10 10 10 10 11 11 12 12 12 12 13 13 12 11 11 11 11 11 10 10 10 10 10 11 11 11 11 11 11 11 12 12 12 12 12 12 11 11 11 10 10 10 10 10 10 10 10 10 10 10 10 11 11 11 10 10 9 9
8 8 8 8 8 8 8 7 8 8 8 9 10 9 9 9 10 10 10 9 9 9 9 8 8 8 8 8 9 9 9 10 10 11 11 12 12 12 12 11 11 11 11 10 10 10 9 9 10 10 10 10 11 11 11 11 11 11 11 11 11 11 11 11 10 10 10 9 9 9 9 9 9 9 10 10 10 10 10 10 10 10 9 9 9
9 8 8 8 8 8 8 7 8 8 8 8 8 8 9 9 9 9 9 9 8 8 7 7 7 7 7 8 8 8 8 8 9 9 10 10 11 11 11 10 10 11 11 10 9 9 9 9 9 10 10 10 10 10 10 10 10 10 10 10 10 10 10 10 9 9 9 9 9 9 8 9 9 9 9 9 9 9 9 9 9 9 9 9 8
9 8 8 8 8 8 8 8 8 8 8 8 8 8 8 8 8 8 8 8 8 6 6 7 7 7 7 7 7 8 8 8 8 8 9 9 9 9 9 9 9 9 9 9 8 8 9 9 9 10 10 10 10 9 9 9 9 10 10 10 10 9 9 9 9 9 9 9 8 8 8 8 8 8 8 8 8 8 9 9 9 8 8 8 8
8 8 8 8 8 8 9 8 8 8 8 8 8 8 8 8 8 8 8 8 7 6 6 6 6 6 6 6 6 7 7 8 8 8 8 8 8 8 8 8 8 8 8 8 8 8 8 9 9 9 9 9 9 9 9 9 9 10 10 10 10 9 9 9 9 8 8 8 8 8 8 8 8 8 8 8 8 8 8 8 8 8 8 8 8
8 8 8 8 8 9 8 8 8 8 8 8 8 8 8 8 8 7 8 8 7 6 6 6 6 6 5 6 6 6 7 7 7 8 8 8 8 8 8 8 8 8 8 8 8 8 8 9 9 9 9 9 9 9 9 9 9 9 9 9 9 9 8 8 8 8 7 7 7 7 7 7 7 8 8 7 7 7 8 8 8 8 8 8 8
7 7 8 8 8 9 8 8 8 8 8 8 8 8 8 8 8 7 7 7 7 6 6 6 6 6 6 6 6 6 7 7 7 7 7 8 8 8 8 8 7 8 8 8 8 9 9 9 9 9 9 9 9 9 8 8 8 8 8 8 8 8 7 7 7 7 7 7 7 7 7 7 7 7 7 7 7 7 7 7 7 7 7 7 7
7 7 7 7 8 8 8 8 8 8 8 8 8 8 8 8 8 7 7 7 7 6 6 6 6 6 7 7 7 7 6 6 6 6 6 7 7 7 8 8 8 8 8 8 8 8 8 8 8 8 8 8 8 8 8 8 8 7 7 7 7 7 6 6 6 6 6 6 6 6 6 7 7 6 6 6 6 6 6 6 6 6 6 6 6
7 7 7 7 7 8 8 8 8 8 8 7 7 7 7 7 7 7 7 7 7 7 7 7 7 7 7 7 7 7 6 6 6 5 5 6 6 7 7 8 7 8 8 8 8 8 8 8 8 8 8 7 7 7 7 6 6 6 6 6 6 6 6 6 6 5 5 5 6 6 6 6 5 5 5 5 5 5 5 5 5 5 5 5 5
7 7 7 7 7 7 7 8 8 8 8 7 7 6 6 6 6 6 6 6 6 7 7 6 6 7 7 6 6 6 6 5 5 5 5 5 6 6 7 7 7 7 7 8 8 8 7 7 6 6 6 6 6 6 5 5 5 5 5 5 5 5 5 5 5 4 5 5 5 5 4 4 4 4 4 4 4 5 5 5 5 5 5 4 4
7 7 7 7 7 7 7 7 7 7 7 7 7 7 7 6 6 6 5 6 6 6 6 6 6 6 6 6 5 5 5 5 5 5 5 5 6 6 6 6 6 6 7 7 7 6 6 5 5 5 5 5 5 5 5 5 4 4 4 4 4 4 4 4 4 4 4 4 4 4 3 3 3 4 4 4 4 4 4 4 4 4 4 4 3
7 7 7 7 7 7 7 7 7 7 7 7 7 7 7 7 6 5 5 5 5 5 5 5 5 5 5 5 5 5 5 5 5 5 5 5 5 5 5 6 6 5 6 7 6 5 4 4 4 4 4 4 4 4 4 4 4 4 4 4 4 4 4 4 3 3 3 3 3 3 3 3 3 3 3 3 3 3 3 3 3 3 3 3 3
7 7 7 7 7 7 7 7 7 7 7 7 7 7 7 7 6 5 5 5 5 5 5 4 4 4 4 4 4 5 5 5 5 5 5 5 5 5 5 5 5 5 6 6 4 3 3 4 3 3 4 3 3 3 4 3 3 3 3 3 3 3 3 3 3 3 3 3 3 3 3 3 3 3 3 3 3 3 3 3 3 3 3 3 3
8 8 8 8 8 8 7 7 7 7 7 7 7 7 7 6 6 5 5 5 4 4 4 4 4 4 4 4 4 4 5 5 5 5 5 5 4 5 5 4 4 4 4 4 3 3 3 3 3 3 3 3 3 3 3 3 3 3 3 3 3 3 3 3 3 3 3 3 3 3 3 3 3 3 3 3 3 3 3 2 2 3 3 3 3
8 8 8 8 7 8 7 7 7 7 7 7 7 7 6 6 6 5 5 5 4 4 4 4 4 4 4 4 4 4 4 4 4 4 4 4 4 4 4 4 3 3 3 2 2 2 2 2 2 3 3 3 3 3 3 3 3 2 2 2 2 2 2 2 2 2 2 2 2 2 2 2 2 2 2 3 3 3 2 2 2 2 2 3 3
8 8 8 7 7 7 7 7 8 8 8 8 7 7 6 6 5 5 5 5 4 4 4 4 4 4 4 4 4 4 4 4 4 3 3 3 3 4 4 2 2 1 1 1 1 2 2 2 2 2 2 3 2 2 2 2 2 2 2 2 2 2 2 2 2 2 2 2 2 2 2 2 2 2 2 3 3 2 2 3 3 3 3 3 3
8 8 7 7 7 7 7 8 8 8 8 8 8 7 6 6 5 5 5 5 4 4 4 4 4 3 3 3 4 4 3 3 3 3 3 2 3 3 2 1 1 1 1 1 1 1 1 1 2 2 2 2 2 2 2 2 2 2 2 2 2 2 2 2 2 2 2 2 2 2 2 2 2 2 3 3 3 3 3 3 3 3 3 3 3
8 8 7 7 7 7 7 7 8 8 7 8 8 7 7 6 5 5 5 5 4 4 4 4 4 4 3 3 3 3 3 3 3 2 2 1 1 1 1 1 0 0 0 0 0 1 1 1 2 2 2 2 2 2 2 2 2 2 2 2 2 2 2 2 2 2 2 2 2 2 2 3 2 2 3 3 3 3 3 3 3 3 3 3 3
7 8 8 7 7 7 7 7 7 7 7 7 7 7 7 6 5 5 5 5 4 4 4 4 4 4 4 3 3 3 3 3 2 2 1 1 1 0 0 0 0 -0 -0 -0 0 1 1 1 2 2 2 2 2 2 2 2 2 2 2 2 2 2 2 2 2 2 2 2 2 2 2 3 3 3 3 3 3 3 3 3 3 3 3 3 3
8 7 8 7 7 7 7 7 7 8 8 7 7 7 7 7 6 5 5 5 5 5 5 4 4 4 4 4 4 3 3 3 2 2 2 1 1 0 -0 -0 -0 -0 -1 -0 0 1 1 1 1 2 2 2 2 2 2 2 2 2 2 2 2 2 2 2 2 2 2 2 2 2 2 3 3 3 3 3 3 3 3 3 3 3 3 3 3
8 7 7 7 7 7 7 7 7 7 7 7 7 7 7 6 6 6 6 5 5 5 5 4 4 4 4 4 3 3 3 3 2 2 2 2 1 1 0 -0 -1 -1 -1 -0 0 1 1 1 1 1 1 2 2 2 2 2 2 2 2 2 2 2 2 2 2 2 2 2 2 2 3 3 3 3 3 3 3 3 3 3 3 3 3 3 3
7 7 7 7 7 7 7 7 7 7 7 7 7 7 6 6 6 6 6 5 5 5 5 4 4 4 4 4 4 3 3 3 3 2 2 2 1 1 0 -0 -0 -0 -0 -0 0 0 1 1 1 1 1 1 2 2 2 2 2 2 2 2 2 2 2 2 2 2 2 2 2 2 2 2 3 3 3 3 3 3 3 3 3 3 3 3 3
7 7 7 7 7 7 7 7 7 7 7 7 7 6 6 6 6 6 5 5 5 5 5 5 4 4 4 4 4 4 3 3 3 2 2 2 1 1 1 0 0 -0 -0 -0 0 0 1 1 1 1 1 1 1 2 2 2 2 2 2 2 2 2 2 2 2 2 2 2 2 2 2 2 2 2 2 2 2 2 3 3 3 2 2 2 2
7 7 7 7 7 8 7 7 7 7 7 7 7 6 6 6 6 6 5 5 5 5 5 5 5 4 4 4 4 4 3 3 3 2 2 2 2 1 1 1 1 0 0 0 0 0 0 1 1 1 1 1 1 1 1 1 1 2 2 2 1 2 2 2 2 2 2 2 2 2 2 2 2 2 2 2 2 2 2 2 2 2 2 2 2
7 7 7 7 7 7 7 7 7 7 7 7 6 6 6 6 6 6 5 5 5 5 5 5 5 5 4 4 4 4 3 3 3 3 2 2 2 2 2 1 1 1 1 0 0 0 0 0 1 1 1 1 1 1 1 1 1 1 1 1 1 1 2 2 2 2 2 2 2 2 2 2 2 2 2 2 2 2 2 2 2 2 2 2 2
7 7 7 7 7 6 6 6 7 7 7 6 6 6 5 6 6 6 5 5 5 5 5 5 5 5 4 4 4 4 3 3 3 3 2 2 2 2 2 2 1 1 1 1 1 1 1 1 1 1 1 1 1 1 1 1 1 1 1 1 1 1 1 1 1 2 2 2 2 2 2 2 2 2 2 2 2 2 2 2 2 2 2 2 2
7 7 7 7 6 6 6 6 6 6 6 6 6 5 6 6 6 5 5 5 5 5 5 5 5 5 5 4 4 4 4 3 3 3 2 2 2 2 2 1 1 1 1 1 1 1 1 1 1 1 1 1 1 1 1 1 1 1 1 1 1 1 1 1 1 1 1 1 2 1 2 2 2 2 2 2 2 2 2 2 2 2 2 2 2
7 6 6 6 6 6 6 6 6 6 6 6 6 6 6 6 6 6 5 5 5 5 5 5 5 5 5 5 5 4 4 3 3 3 3 2 2 2 2 1 1 1 1 1 1 1 1 1 1 1 1 1 1 1 1 1 1 1 1 0 0 1 1 1 1 1 1 1 1 1 1 1 1 1 1 1 1 1 1 1 1 2 2 2 2
6 6 6 6 6 6 6 6 6 6 6 6 6 6 5 5 6 5 5 5 5 5 5 5 5 5 5 5 5 4 4 4 3 3 3 2 2 2 2 2 1 1 1 1 1 1 1 1 1 1 1 1 1 1 1 1 1 0 0 0 0 0 1 1 1 1 1 1 1 1 1 1 1 1 1 1 1 1 1 1 1 1 1 2 2
6 6 6 6 5 5 6 6 6 6 6 6 6 6 5 5 5 5 5 5 5 5 5 5 5 5 5 5 5 5 4 4 4 3 3 3 2 2 2 2 2 1 1 1 1 1 1 1 1 1 1 1 1 1 1 1 1 1 1 1 1 1 1 1 1 1 1 1 1 1 1 1 1 0 0 0 0 0 0 0 0 1 1 1 2
6 6 6 5 5 4 5 6 6 6 5 6 6 6 6 6 6 5 5 5 6 6 6 5 5 6 6 5 5 5 5 4 4 4 3 3 3 2 2 2 2 1 1 1 1 1 1 1 1 1 1 1 1 1 1 1 1 1 1 1 1 1 1 1 1 1 1 1 1 1 0 1 0 -0 -0 -0 -0 -0 -0 -0 0 0 1 1 1
Height
782 784 786 786 785 785 786 788 790 793 794 795 796 798 800 803 805 807 809 811 812 813 815 816 818 819 820 821 822 823 824 824 825 825 826 827 828 829 830 831 832 833 834 835 835 836 837 838 839 840 841 842 842 843 844 846 847 848 850 851 852 854 855 855 855 856 858 860 861 861 862 863 863 864 865 865 866 866 867 868 868 869 869 869 870
782 783 783 783 782 781 782 784 787 791 793 794 795 796 798 801 803 806 808 811 812 813 815 816 817 819 819 820 822 823 823 824 824 825 825 826 827 828 830 831 832 833 834 834 835 836 837 838 839 840 840 841 842 843 844 845 846 848 849 851 852 853 854 854 855 856 857 859 860 861 862 862 862 863 863 864 865 865 866 866 867 867 868 868 869
783 782 781 780 779 779 781 783 786 790 792 794 795 796 797 799 802 805 808 810 812 814 815 816 817 818 819 820 821 822 823 824 824 825 825 826 827 828 829 830 831 832 833 834 835 836 837 838 839 839 840 841 842 843 844 845 846 847 849 850 850 851 852 852 853 855 856 858 859 860 860 861 861 861 862 863 864 864 864 865 865 866 866 867 867
782 781 780 779 778 779 781 783 786 790 792 793 794 795 796 798 800 804 807 810 811 813 815 816 817 817 818 819 820 821 823 823 824 825 826 826 827 828 828 830 831 831 832 833 834 836 837 837 838 839 840 842 843 843 844 845 845 846 848 848 848 848 850 851 852 853 854 856 857 858 858 859 860 861 861 862 863 863 863 864 864 865 865 866 866
781 780 779 779 779 780 781 783 787 790 791 791 792 793 794 796 799 802 806 809 811 813 815 816 816 817 818 819 820 821 823 823 824 825 825 826 826 827 828 829 830 831 832 833 834 835 836 837 838 839 840 841 842 843 843 844 844 845 846 846 846 847 849 850 851 851 852 854 855 857 858 858 859 860 860 861 861 862 863 863 864 864 865 865 865
779 779 779 778 778 779 780 781 785 788 789 789 790 792 793 795 798 801 804 807 810 812 814 814 815 816 818 819 820 821 822 823 824 825 825 825 825 826 827 829 830 831 832 832 833 835 836 837 838 839 840 841 842 843 843 843 843 844 845 846 846 847 848 850 850 851 852 852 853 855 857 857 858 859 859 860 860 860 861 862 863 863 863 863 863
776 777 777 777 777 778 779 780 782 785 787 787 788 789 791 793 796 800 803 806 809 812 812 813 814 816 817 818 820 821 822 823 824 824 825 825 826 826 827 829 830 831 832 832 833 834 835 836 837 838 840 841 842 843 843 843 844 844 845 846 847 848 848 849 850 851 851 852 853 854 855 856 857 858 858 859 860 860 860 861 861 861 861 861 861
775 776 775 773 773 776 779 780 782 784 786 787 787 788 790 792 795 798 802 805 808 810 811 812 813 815 816 818 819 821 822 823 824 824 825 826 826 827 827 829 829 830 832 832 833 834 834 835 837 839 840 842 843 843 844 844 844 845 846 847 847 848 849 850 851 851 851 852 852 853 854 855 856 857 858 859 859 859 859 859 858 858 858 858 858
775 774 772 769 770 773 776 779 781 783 786 788 788 788 791 793 794 797 801 804 807 808 809 811 813 814 816 817 819 820 822 823 824 824 825 825 826 827 827 828 829 831 832 833 834 835 835 836 838 839 841 842 843 844 844 845 845 846 847 847 848 849 849 850 851 851 852 852 852 853 853 854 855 855 856 856 856 856 856 857 856 856 856 856 855
774 772 770 770 770 772 774 776 778 781 784 788 790 789 792 795 794 796 800 803 805 807 808 810 813 814 815 817 818 820 821 823 824 824 825 825 826 827 827 828 829 831 832 833 834 836 837 837 838 839 841 842 843 844 845 845 846 846 847 848 849 850 850 851 851 851 852 852 852 853 853 853 854 854 854 853 853 854 854 855 855 854 855 854 853
776 774 772 772 771 772 774 775 776 780 783 788 790 789 792 796 795 795 799 802 803 805 807 809 812 813 815 817 818 819 820 822 823 824 825 825 826 826 827 828 829 831 832 833 834 835 837 837 838 839 841 842 843 844 845 846 847 847 848 849 850 851 851 852 852 852 852 852 852 853 853 853 853 854 854 853 853 853 853 853 853 853 853 853 851
778 776 774 773 773 773 774 773 775 780 782 786 789 788 791 796 796 794 797 800 802 804 806 809 811 813 815 816 817 819 820 821 823 824 825 825 826 826 827 828 829 830 832 833 834 835 836 837 838 840 841 842 843 844 845 846 847 848 849 849 850 851 851 852 852 852 852 853 853 853 854 854 853 853 854 853 853 853 853 853 853 852 851 851 851
781 778 776 775 775 774 773 772 774 779 781 785 788 787 790 796 796 793 796 800 802 804 806 808 811 813 815 816 817 818 820 821 823 823 824 825 826 827 827 828 830 831 832 833 834 835 836 837 838 840 841 842 843 844 845 846 847 847 848 849 850 851 851 852 852 852 853 853 853 853 854 854 854 853 853 853 853 853 852 853 852 851 851 851 851
784 782 779 777 776 775 774 773 775 778 781 784 787 786 790 796 795 792 796 800 802 804 806 808 811 813 814 815 817 818 820 822 823 823 824 825 826 827 828 829 830 832 833 834 835 836 837 837 838 840 841 842 843 843 844 845 846 847 848 849 850 850 851 851 852 852 852 852 853 853 853 853 853 852 853 852 852 851 851 851 851 850 849 849 849
787 785 783 781 779 778 776 775 776 779 781 784 786 787 792 796 794 793 797 799 801 804 806 809 811 813 814 815 817 819 821 823 824 824 825 826 827 827 829 830 831 832 834 835 836 837 837 838 839 840 842 843 843 843 844 845 846 847 848 849 850 850 851 851 851 852 852 852 852 852 852 852 851 851 851 851 851 850 850 850 850 849 847 847 847
791 789 786 785 783 782 780 778 778 780 781 784 786 789 794 796 795 795 798 799 802 805 807 810 812 813 815 816 817 819 822 824 825 825 825 826 827 828 829 830 831 833 834 835 836 837 838 838 839 840 842 843 843 843 844 845 846 847 848 849 850 850 851 851 851 851 851 851 851 851 851 851 850 850 850 850 849 849 848 849 848 847 846 845 844
796 793 790 789 788 786 785 783 781 782 784 785 787 790 794 796 797 799 799 800 803 805 808 811 813 814 816 817 818 820 822 824 825 826 826 827 827 829 830 831 832 833 834 835 836 837 838 839 839 839 841 843 843 843 844 844 845 846 847 848 849 850 850 851 851 851 851 851 851 851 850 850 849 849 849 848 848 847 847 846 846 845 844 843 842
800 797 795 794 792 791 790 788 786 786 787 788 790 793 796 797 799 801 801 802 804 806 809 812 815 816 817 818 820 821 823 825 826 826 827 827 828 829 830 831 833 835 835 836 837 837 838 839 840 840 841 842 843 843 843 843 843 844 845 846 848 849 849 850 850 850 850 850 850 850 849 848 847 847 847 847 846 845 845 844 844 843 842 841 840
805 803 801 800 797 795 794 794 792 791 791 792 794 797 799 800 801 802 803 805 806 809 811 812 815 818 819 820 822 822 823 825 826 826 827 828 829 829 830 831 833 835 837 838 838 838 838 839 840 841 842 842 843 843 843 843 843 842 843 844 845 847 847 848 848 848 848 848 848 848 847 846 846 845 845 845 844 844 843 842 842 841 841 840 839
810 808 807 804 802 800 798 797 797 797 797 798 799 801 803 804 804 805 807 808 809 811 812 812 815 818 820 822 823 824 825 826 827 828 828 829 829 830 830 831 833 835 837 838 839 839 839 840 841 842 842 842 842 843 843 843 843 842 842 842 843 844 845 846 847 847 847 847 846 846 845 845 844 844 844 843 843 842 842 841 840 839 839 839 838
815 813 810 808 806 804 802 802 801 802 803 803 804 805 806 807 808 809 810 811 812 813 814 814 816 819 822 823 825 827 828 829 829 830 830 830 830 830 831 832 833 835 836 838 839 840 840 841 842 842 842 842 842 842 842 842 842 841 840 841 842 843 844 845 846 846 846 846 846 845 845 844 844 843 843 842 842 841 840 839 838 838 837 837 837
818 816 814 812 810 809 808 807 806 806 807 807 808 809 810 811 812 813 813 814 814 815 817 818 819 821 823 826 828 829 830 831 832 832 832 831 831 831 832 833 834 835 836 838 839 840 841 841 842 842 842 842 842 841 841 841 841 840 839 840 841 842 843 844 845 845 845 845 845 845 844 844 843 843 842 841 841 840 839 839 838 837 836 836 836
820 819 817 816 814 813 813 812 811 811 812 811 811 812 813 815 816 817 817 816 817 818 820 822 823 824 826 829 831 832 832 833 834 833 833 833 833 833 833 834 836 837 837 838 840 841 841 841 841 841 841 841 841 841 841 841 840 839 839 839 840 842 843 843 844 844 844 844 844 844 844 843 843 842 842 841 840 840 839 838 838 837 836 836 836
823 821 820 819 818 817 816 816 815 815 815 815 814 814 815 817 818 819 820 819 819 821 823 825 826 828 829 831 833 834 834 835 835 834 834 834 834 834 835 836 837 838 838 839 840 840 840 841 841 841 841 840 841 841 841 840 839 839 839 840 841 842 842 843 844 844 844 844 844 844 844 843 843 842 842 841 840 840 839 838 837 837 836 836 835
826 824 823 822 821 820 820 819 819 818 818 818 818 817 818 818 819 821 822 822 822 824 826 828 829 830 832 834 835 835 836 836 835 835 835 835 835 836 837 837 838 839 839 839 840 840 840 840 841 841 841 841 841 841 840 840 839 839 840 841 841 842 843 843 844 844 844 844 844 845 845 844 844 843 842 841 841 840 839 838 837 837 836 835 835
829 828 827 826 825 824 823 822 822 822 822 822 821 821 821 821 822 823 824 824 825 826 828 830 832 833 834 835 836 836 837 837 837 836 836 836 836 837 837 838 838 839 839 839 840 840 840 841 841 841 841 841 841 840 841 841 841 841 842 842 842 843 843 844 844 844 845 845 845 845 845 844 844 843 842 841 841 840 839 838 837 837 836 835 835
831 831 831 830 829 827 827 826 825 825 825 825 824 824 825 825 825 825 826 827 827 828 830 832 834 835 836 836 837 837 838 838 838 837 837 837 837 837 838 838 839 839 839 840 840 840 840 840 840 840 840 841 841 841 842 842 842 842 843 843 844 844 845 845 846 845 846 846 846 845 845 844 843 842 841 841 840 839 839 838 837 837 836 836 835
834 834 834 833 832 832 830 829 828 828 828 827 827 827 827 827 827 828 829 830 830 831 832 834 836 837 837 837 838 839 839 840 839 838 838 838 837 838 838 838 839 840 840 840 840 840 840 840 840 840 841 841 841 842 842 843 843 844 844 845 845 846 846 846 846 846 846 846 845 845 844 843 842 841 841 840 839 839 839 838 838 838 837 836 836
836 836 836 835 835 834 834 832 831 831 831 830 830 830 830 830 830 831 832 833 834 834 835 836 837 838 838 839 840 840 840 840 840 839 838 838 838 838 838 839 840 840 840 840 840 840 840 840 840 841 841 841 842 843 843 844 844 845 846 846 847 847 847 847 846 846 846 846 845 844 844 843 842 842 841 841 840 839 839 839 838 838 838 837 837
840 839 839 838 837 837 836 835 834 834 834 833 833 833 833 833 833 834 835 835 836 836 836 837 838 839 839 840 840 840 840 840 840 840 839 839 839 839 839 840 840 840 841 841 840 840 840 841 842 842 842 842 843 844 845 846 846 847 847 847 847 847 847 847 847 847 846 846 845 845 844 843 843 842 841 841 840 840 840 839 839 838 838 838 837
842 841 841 841 840 839 839 838 838 837 837 836 836 835 836 836 837 837 837 838 838 838 838 838 839 840 840 840 841 841 841 841 842 842 841 841 841 841 841 841 841 841 842 841 841 842 842 843 843 844 844 844 845 846 847 847 847 848 848 848 848 848 847 847 847 847 846 846 845 845 844 843 843 842 842 842 841 841 840 840 839 839 839 838 838
844 843 843 843 843 842 841 841 841 840 840 839 839 838 838 838 839 840 841 841 840 840 840 841 841 842 842 842 842 842 843 843 843 843 843 842 842 842 842 842 842 843 842 842 842 844 845 845 846 846 847 847 848 848 848 848 848 848 848 848 848 848 848 848 847 847 846 846 845 844 844 843 843 843 843 842 842 842 841 841 840 840 840 839 839
846 845 844 844 844 844 844 843 843 843 842 842 842 841 841 840 841 842 843 844 843 843 843 843 843 844 844 844 844 844 844 845 845 844 844 844 843 843 843 843 843 843 843 843 844 845 847 847 847 848 848 849 849 849 849 850 850 850 849 849 849 849 848 848 848 847 847 846 846 845 845 845 845 844 844 843 843 843 842 842 842 841 841 840 840
847 847 846 845 845 845 845 845 844 844 843 843 843 843 843 843 843 844 845 845 845 845 845 845 846 846 846 846 846 846 847 846 846 846 845 845 845 845 844 844 844 844 844 844 845 847 848 848 849 849 850 850 850 851 851 851 851 850 850 849 849 849 849 849 848 848 848 848 847 847 847 847 846 846 845 845 844 844 843 843 843 842 841 841 841
849 848 847 847 846 845 845 845 845 844 843 843 843 844 845 845 845 845 846 846 847 847 847 848 848 848 848 848 849 849 849 849 848 848 848 847 847 846 846 845 845 845 846 846 847 848 849 849 850 851 851 851 852 852 851 851 851 850 850 850 850 850 850 850 850 850 850 850 850 849 849 848 848 848 847 846 846 845 845 844 844 843 842 842 841
850 849 848 848 847 847 846 846 845 845 844 843 843 844 845 846 846 847 847 847 847 848 849 849 850 850 850 850 851 851 851 851 851 850 849 849 848 847 846 846 847 847 848 848 849 850 850 851 851 852 852 852 852 852 851 851 851 851 851 851 851 852 852 852 852 852 852 852 851 851 851 850 850 849 849 848 847 847 846 846 845 844 844 843 843
851 850 849 849 848 848 848 847 846 846 845 844 844 845 846 847 848 848 848 848 849 850 851 851 851 851 852 852 853 853 853 852 852 851 850 850 849 848 848 848 848 849 849 850 851 851 851 852 852 852 852 852 852 852 852 852 852 852 853 853 853 854 854 854 854 854 854 853 853 852 852 852 851 851 850 849 849 848 847 847 846 845 845 844 844
852 851 850 850 850 849 849 848 848 847 846 846 846 846 847 848 849 849 850 850 851 851 852 852 852 853 853 854 855 854 854 853 853 852 852 851 851 850 850 850 850 850 850 850 851 851 851 852 852 852 852 852 852 853 853 854 854 854 855 855 855 855 855 855 855 855 855 854 854 854 854 853 853 852 851 850 850 849 848 848 847 846 846 845 845
853 852 852 851 851 851 850 850 849 848 848 847 848 848 848 849 850 851 851 852 852 852 852 853 853 854 855 855 855 855 855 854 854 853 853 852 851 851 850 850 850 850 850 850 851 851 852 852 853 853 853 854 854 855 855 855 856 856 857 857 857 857 857 857 857 856 856 856 855 855 855 854 853 853 852 851 850 850 849 849 848 847 847 846 845
854 853 853 852 852 852 852 851 850 850 849 849 849 849 850 850 851 852 852 852 853 853 853 854 854 855 855 856 855 855 855 854 854 854 853 852 852 851 850 850 850 850 850 851 852 853 853 854 854 855 855 856 856 856 857 857 858 858 858 858 858 858 858 858 858 857 857 857 857 856 856 855 855 854 853 852 851 851 850 850 849 848 847 847 846
854 854 854 854 853 853 853 852 851 851 850 850 850 850 851 852 852 853 853 853 853 853 854 854 855 856 856 856 855 855 855 854 854 854 854 853 852 851 851 851 851 852 852 853 854 854 855 855 856 856 856 857 857 858 858 859 859 859 859 859 859 859 859 859 858 858 858 858 858 857 857 856 856 855 854 854 853 852 851 851 850 849 848 848 847
855 855 854 854 854 854 853 853 852 852 852 852 851 851 851 852 853 853 853 853 853 853 854 855 855 856 856 856 855 855 854 854 855 854 854 854 853 853 853 854 854 854 855 855 855 856 856 857 857 857 858 858 858 859 859 860 860 860 860 860 860 860 860 860 860 859 859 859 859 858 858 857 857 856 855 855 854 853 852 851 851 850 849 849 848
856 855 855 854 854 853 853 853 853 853 853 852 852 852 852 852 852 853 853 853 853 853 854 855 855 856 856 856 856 855 855 855 855 855 855 855 855 855 855 855 856 856 856 856 856 857 857 858 858 858 859 859 860 860 860 861 861 861 861 861 861 861 861 861 861 860 860 859 859 859 858 858 857 857 856 855 854 854 853 852 851 851 850 849 848
855 855 855 854 854 853 852 853 853 853 853 853 853 853 853 853 853 853 853 853 853 853 854 855 855 856 856 857 856 856 856 856 856 857 857 856 856 857 857 857 857 857 857 857 857 858 858 858 859 859 859 860 860 861 861 862 862 862 862 862 862 862 862 862 861 861 860 860 860 859 859 858 858 857 856 855 855 854 853 852 852 851 850 850 849
855 855 854 854 854 853 853 853 853 853 854 853 853 853 853 853 853 853 854 854 854 854 854 855 856 856 856 857 857 857 857 857 858 858 858 858 857 857 857 857 858 858 858 858 858 858 859 859 859 860 860 861 861 862 862 863 863 863 863 863 863 863 862 862 862 862 861 861 860 860 859 858 858 857 856 856 855 854 854 853 852 851 851 850 849
854 854 854 854 854 854 854 854 854 854 853 853 853 853 854 854 854 854 854 854 854 854 854 855 856 856 856 856 857 857 857 858 858 858 858 858 858 858 858 858 858 858 858 859 859 859 860 860 860 861 861 862 863 863 864 864 864 864 864 864 863 863 863 863 862 862 862 861 860 860 859 858 858 857 856 856 855 854 854 853 852 851 851 850 849
854 854 854 854 854 854 854 854 854 854 853 853 853 853 853 853 854 854 854 854 854 854 854 854 855 856 856 856 857 857 858 858 858 859 859 859 859 858 858 858 859 859 859 859 860 860 861 861 862 862 863 863 864 864 864 864 864 864 864 864 863 863 863 863 863 862 862 861 861 860 859 858 858 857 856 856 855 854 854 853 852 851 851 850 849
854 854 853 853 853 854 853 853 853 854 853 853 853 853 853 853 853 853 853 854 853 853 854 854 855 855 856 856 856 857 857 858 858 858 859 859 859 859 859 859 859 860 860 860 861 861 862 862 863 863 864 864 864 865 865 865 864 864 864 864 863 863 863 863 863 862 862 861 860 860 859 858 857 857 856 855 854 854 853 852 852 851 850 850 849
854 854 853 853 853 853 853 853 853 853 853 853 852 852 853 853 853 853 853 853 853 854 854 854 854 855 855 855 856 856 857 858 858 858 859 859 859 859 859 860 860 861 861 861 862 862 863 863 864 864 864 865 865 865 865 864 864 864 864 863 863 863 863 863 862 862 861 861 860 859 858 857 857 856 855 854 854 853 852 852 851 850 850 849 849
854 854 853 853 853 853 853 853 852 852 852 852 852 852 852 852 852 852 852 853 853 853 854 854 854 854 854 854 855 855 856 857 858 858 858 859 859 860 860 860 861 861 862 862 862 863 863 863 864 864 864 865 865 865 865 864 864 864 864 863 863 863 862 862 862 861 861 860 859 859 858 857 856 855 854 854 853 852 852 851 850 850 849 849 849
854 853 853 853 853 853 853 852 851 850 850 851 851 851 851 851 851 851 852 852 852 853 853 853 854 854 853 854 854 855 855 856 857 858 859 859 859 860 860 861 861 861 862 862 863 863 863 864 864 864 865 865 865 865 865 864 864 864 863 863 863 862 862 862 861 861 860 859 859 858 857 856 855 854 854 853 853 852 851 851 850 850 849 849 848
Wind_Speed
12 13 15 17 18 19 19 18 19 19 21 23 23 22 21 24 25 25 26 26 25 25 23 22 22 21 19 19 19 19 18 17 16 15 16 16 16 16 15 15 14 14 14 16 15 15 16 15 14 16 16 15 16 18 21 22 22 24 24 24 24 18 17 19 13 10 14 18 17 15 15 18 18 17 15 14 14 14 14 14 15 15 14 13 12
9 12 16 17 18 19 20 20 20 20 21 23 23 23 23 24 25 27 28 27 26 25 23 24 23 21 20 19 19 18 17 17 17 16 17 17 16 16 16 15 15 15 15 15 15 15 16 16 15 16 16 14 13 14 16 18 20 25 25 24 26 23 21 22 18 14 15 16 17 17 17 19 19 18 18 16 15 15 16 16 17 17 16 15 14
10 10 14 17 18 19 19 19 20 21 21 22 23 24 25 25 27 29 29 27 25 23 23 24 23 21 21 19 18 18 18 16 16 16 17 17 16 17 16 16 15 15 15 15 16 16 16 16 16 16 15 14 13 11 13 15 17 21 22 21 25 25 23 25 22 18 17 16 17 19 20 20 19 18 18 18 16 15 16 16 17 18 18 17 16
11 11 13 16 17 18 18 17 20 21 21 21 23 26 26 26 28 30 29 27 25 23 24 22 21 22 22 19 18 19 19 17 15 15 15 14 16 17 17 16 16 15 15 15 17 17 17 17 16 16 15 15 13 10 11 12 12 15 17 16 19 22 24 26 23 21 20 19 20 22 21 20 18 17 18 19 18 17 16 16 17 18 19 19 19
8 9 10 13 16 17 17 17 19 21 22 23 25 28 28 28 29 30 29 27 25 25 24 20 19 21 21 18 18 18 17 17 15 14 12 12 14 17 18 17 16 15 14 15 17 17 17 16 17 16 15 14 11 7 7 9 9 11 14 12 13 19 23 22 21 20 20 21 22 22 21 20 18 18 19 21 20 19 18 18 18 19 20 21 21
9 9 8 11 15 17 19 19 22 24 24 25 28 29 29 29 30 30 29 27 26 26 23 20 19 20 20 18 17 16 15 16 16 14 12 11 13 16 19 18 16 14 13 14 16 17 16 16 16 15 13 11 10 8 6 6 9 13 15 13 15 20 21 20 20 18 18 20 22 22 22 22 20 19 20 22 22 21 21 21 21 21 21 22 23
12 11 10 11 15 17 20 21 24 26 25 27 30 30 31 32 31 31 29 26 26 26 22 20 21 21 20 19 17 16 15 16 18 16 12 12 14 16 17 18 16 13 13 14 15 16 16 16 15 13 10 8 10 11 9 8 10 13 14 13 14 17 18 18 19 18 18 19 20 21 23 23 22 20 20 22 23 22 22 22 24 24 25 25 26
13 11 11 15 18 16 17 20 24 24 23 25 28 29 32 33 32 30 28 26 26 25 23 22 23 22 21 19 18 18 17 17 18 16 13 13 14 12 12 14 15 14 13 13 13 14 15 15 12 10 10 11 12 12 9 8 9 11 14 14 14 14 15 15 17 19 18 18 19 21 21 22 23 20 18 20 23 23 24 26 26 26 26 26 27
10 11 14 17 19 15 14 20 24 24 22 23 25 27 29 29 30 29 26 26 27 25 23 23 23 23 21 19 19 19 18 18 18 15 13 13 12 9 9 14 17 17 16 16 15 14 14 13 12 11 12 13 12 11 10 9 9 11 12 12 12 13 12 11 13 17 17 16 16 18 18 20 22 20 17 20 24 26 27 27 28 29 28 28 30
9 11 16 15 16 16 16 20 24 23 23 23 24 28 27 24 27 28 25 26 28 25 24 23 23 23 21 20 20 19 17 18 18 16 13 12 12 10 10 16 20 19 19 18 17 15 13 13 13 13 13 12 11 10 10 9 9 10 9 8 9 10 10 10 8 10 12 11 10 13 15 17 19 20 18 20 23 25 26 27 28 30 28 27 29
11 7 14 17 17 17 17 20 23 22 22 24 24 28 26 20 24 29 27 26 27 25 24 24 23 23 22 21 21 19 18 19 19 17 14 12 13 12 13 19 22 20 20 19 18 17 16 15 15 14 12 12 11 10 10 9 9 8 7 6 6 6 6 7 7 6 6 7 5 5 7 9 10 11 11 12 15 18 23 26 28 29 27 23 23
20 13 4 13 17 19 19 21 24 23 22 24 25 27 24 20 24 30 28 27 28 26 25 25 24 25 24 23 22 20 19 19 19 18 16 14 13 14 17 20 21 20 20 20 19 18 18 17 16 14 13 12 11 10 9 9 8 7 6 5 4 3 3 3 3 2 1 1 1 1 2 3 4 4 4 5 6 8 13 17 20 23 24 21 18
25 22 13 3 8 15 19 22 24 24 23 23 24 27 25 22 26 31 29 28 27 26 27 27 27 27 26 25 24 22 20 19 18 18 16 14 14 15 17 19 20 20 21 22 21 20 19 18 16 14 12 11 10 10 9 9 7 6 5 4 3 3 3 3 3 3 3 2 3 4 4 6 7 7 7 8 9 10 10 12 15 16 17 17 16
28 27 22 14 8 7 15 22 24 23 23 23 24 26 25 22 27 31 30 29 29 29 29 29 28 28 27 26 25 24 22 20 18 18 17 15 15 15 16 18 19 20 20 21 20 19 18 18 16 14 13 12 11 11 10 9 7 5 4 3 3 2 2 2 3 3 3 4 5 5 5 7 9 10 10 10 12 13 14 15 15 13 12 12 13
30 29 27 21 14 11 12 20 24 23 23 23 24 26 25 23 28 32 31 31 31 31 31 30 29 27 26 26 26 24 22 20 19 20 19 18 18 18 19 20 20 20 20 20 19 18 17 16 15 14 12 11 11 10 8 7 5 3 2 1 1 3 4 5 5 5 5 6 7 8 8 9 11 13 13 12 12 13 14 13 10 10 11 12 15
30 29 29 26 20 16 14 17 22 24 26 27 27 28 27 26 28 31 32 33 33 32 31 29 28 26 25 25 25 23 20 19 19 20 20 20 20 21 21 22 22 22 21 20 18 17 15 13 12 11 8 7 8 7 5 4 3 2 1 1 2 3 5 5 6 6 6 7 8 9 10 10 11 12 13 12 12 11 12 12 10 11 14 18 20
30 30 29 26 23 20 18 18 21 24 26 28 28 28 28 29 29 30 33 34 33 32 30 28 26 25 24 23 23 22 19 17 18 19 19 19 18 19 19 20 21 21 20 18 16 15 14 12 11 11 10 8 7 5 4 4 4 3 2 1 2 3 4 5 6 6 7 8 8 9 10 11 12 13 13 12 12 11 11 12 13 13 14 15 17
29 30 29 26 24 22 20 20 21 23 24 26 27 26 26 28 30 31 32 34 33 32 30 28 26 24 23 22 21 21 19 16 15 17 18 18 18 18 19 19 19 16 13 13 13 13 13 13 12 12 13 11 8 7 6 5 6 5 3 2 3 4 6 7 8 8 9 9 10 11 12 13 13 14 13 13 12 12 11 11 12 13 14 14 15
27 27 27 26 24 23 23 22 22 24 25 25 26 26 26 27 29 30 32 33 33 32 31 30 27 25 23 22 20 20 19 17 14 14 15 16 17 18 18 18 16 11 7 9 11 11 13 14 12 11 11 10 8 7 5 4 4 4 3 3 4 6 8 9 10 11 11 12 12 12 12 11 12 12 12 11 11 10 10 10 9 10 14 16 17
25 24 25 26 26 25 24 24 23 24 24 24 25 26 27 27 27 28 29 30 30 30 30 30 29 26 23 22 20 19 18 17 15 14 14 13 14 15 16 17 18 17 15 14 14 13 12 12 10 8 7 6 5 3 2 1 2 1 2 3 5 7 9 10 10 9 9 9 9 9 8 7 7 8 9 10 10 11 11 11 9 9 12 15 17
25 25 24 25 26 26 26 25 25 24 23 22 22 22 23 24 24 24 24 24 25 26 26 27 27 26 23 22 21 20 18 16 15 13 13 13 13 14 16 18 19 19 18 17 14 12 10 8 6 5 3 2 1 1 2 3 4 4 4 5 6 7 8 7 5 5 5 5 5 6 6 6 7 9 11 13 14 15 15 14 13 11 10 12 14
25 26 25 24 24 24 24 24 25 25 24 24 23 22 21 21 20 21 22 23 24 26 26 26 27 27 25 23 22 21 19 17 16 14 13 13 12 12 14 15 14 13 14 13 11 9 7 5 3 2 0 1 2 3 3 3 3 3 4 4 3 3 3 3 3 4 5 5 6 7 7 8 10 12 14 15 17 17 17 16 15 13 11 8 8
25 25 26 26 24 23 22 22 22 22 21 23 25 24 22 21 20 20 22 24 27 28 28 28 28 28 26 23 22 21 19 17 16 15 14 13 13 12 13 13 11 10 11 11 9 7 5 3 1 1 1 2 2 3 4 5 5 6 7 6 5 4 3 2 3 5 6 6 7 8 9 11 12 13 14 15 16 17 17 15 13 11 10 8 7
27 25 23 24 24 23 21 21 21 20 18 19 20 21 20 21 20 20 21 25 28 28 26 27 27 26 24 22 21 19 18 16 16 15 14 14 13 13 13 13 11 9 9 9 8 6 5 4 3 3 4 5 6 6 6 7 8 9 9 8 7 5 5 4 5 6 8 8 9 10 11 12 12 13 13 14 14 14 13 13 11 10 9 8 8
28 27 25 23 22 21 20 19 20 20 19 18 19 19 18 17 18 17 18 21 24 24 24 24 23 22 21 20 18 17 16 15 15 14 13 13 13 12 12 12 11 10 9 9 8 7 7 8 8 8 8 8 8 9 10 12 12 12 11 11 10 8 8 9 9 9 10 10 9 10 10 11 12 12 11 11 11 10 11 11 11 11 11 10 10
25 25 25 24 22 21 20 20 20 21 21 20 21 21 20 19 18 16 16 17 19 21 23 23 21 20 19 18 17 16 15 14 14 13 13 12 11 11 10 11 10 10 10 10 10 10 11 11 11 12 13 13 14 16 17 17 15 14 14 13 13 13 13 12 12 11 11 10 9 10 10 11 12 11 11 9 8 8 9 9 10 10 10 9 9
24 22 21 22 22 23 23 22 22 22 23 23 23 23 23 22 22 21 19 18 19 21 22 21 20 18 18 17 16 15 14 13 13 13 12 12 11 10 10 11 11 11 12 12 12 13 14 15 17 18 18 18 18 18 18 17 17 17 16 16 16 15 15 13 11 11 11 10 10 10 11 12 13 12 11 9 8 8 8 8 8 8 7 6 7
24 23 21 19 19 20 22 23 24 24 24 24 23 23 23 23 23 24 22 20 20 21 21 20 17 16 15 15 14 14 14 14 15 15 14 13 12 11 12 13 13 13 15 16 17 18 19 20 20 20 19 19 19 18 17 17 17 17 17 17 16 14 13 11 10 11 11 10 11 12 13 13 12 11 10 8 7 7 6 6 6 5 4 5 6
21 22 22 21 18 16 18 20 22 22 23 25 25 24 24 23 23 23 22 20 19 18 17 17 15 13 13 13 13 13 15 15 16 16 16 15 14 14 14 15 15 16 18 19 20 20 20 20 19 18 18 19 19 19 18 17 17 17 16 15 13 12 11 10 11 11 11 11 12 12 12 11 10 9 9 8 7 7 6 6 5 5 4 5 5
16 17 20 21 19 15 15 16 18 19 21 22 24 24 23 23 23 23 22 20 19 18 17 16 13 11 12 13 13 14 15 16 16 16 16 15 15 16 17 17 17 19 19 18 18 19 20 20 20 19 18 18 19 19 18 17 16 16 15 14 13 13 12 12 12 12 11 11 10 10 9 10 10 10 9 9 8 8 7 7 6 6 6 6 7
17 16 18 21 20 17 15 13 13 15 17 19 20 21 22 21 21 21 21 20 20 19 19 18 15 13 13 15 16 15 15 15 15 15 15 15 16 17 17 17 17 17 16 15 17 20 21 21 21 19 18 18 18 17 16 16 15 15 14 13 14 13 12 12 11 10 9 8 9 10 10 11 11 10 10 10 9 8 8 8 7 7 7 7 8
17 16 15 16 17 17 16 13 9 9 11 14 17 19 20 21 20 20 20 20 21 21 20 20 19 18 17 16 15 15 14 14 14 13 13 13 14 15 15 15 15 14 11 12 18 21 20 19 20 19 18 18 18 16 15 15 15 14 14 13 12 11 10 10 9 8 9 10 11 12 12 11 11 10 9 9 9 10 10 10 11 10 9 9 9
13 13 11 10 10 12 14 13 10 7 6 8 12 15 18 20 21 21 21 22 22 22 22 22 21 20 18 17 15 14 13 13 12 11 11 10 10 11 11 12 12 10 8 12 19 21 19 19 19 18 18 18 17 15 15 14 13 13 12 11 9 9 9 9 9 10 11 12 12 12 11 10 10 9 10 10 11 12 12 12 13 13 12 11 11
10 9 8 7 8 9 11 12 12 10 5 5 8 11 15 19 22 23 23 22 22 22 22 21 20 19 18 16 15 14 13 12 12 11 10 9 9 8 9 11 11 10 10 14 19 19 18 19 19 18 17 17 15 14 14 13 12 12 11 10 10 10 10 10 10 12 12 11 11 11 10 10 10 11 11 11 12 12 13 12 12 13 12 11 11
9 9 7 7 8 9 10 11 11 11 8 7 8 9 13 18 21 22 23 22 21 21 20 20 18 17 16 14 12 11 11 11 11 10 9 8 7 5 6 10 14 15 16 18 18 18 17 17 16 15 15 14 12 11 11 11 11 12 12 12 11 10 10 10 10 11 11 10 11 11 10 10 10 10 10 10 11 13 13 13 12 12 11 10 11
11 11 9 8 9 10 10 11 11 11 11 10 8 10 14 17 19 20 21 21 20 18 18 17 16 15 13 12 10 9 8 9 9 8 7 6 4 3 7 13 17 17 17 17 17 17 16 16 15 14 12 11 11 11 10 11 12 13 13 12 11 10 10 10 10 10 10 10 10 10 9 10 10 10 10 10 11 12 13 12 11 10 8 9 10
12 12 10 10 11 12 12 12 13 14 14 14 11 10 14 17 18 18 18 17 16 15 15 14 14 13 13 11 9 8 8 9 10 10 9 8 6 8 13 17 18 17 16 15 13 14 15 15 14 13 13 12 13 13 12 12 12 13 12 12 11 10 10 9 9 9 9 9 9 8 9 10 11 11 10 9 9 10 10 10 10 9 8 8 9
10 10 9 8 10 12 12 12 13 15 16 16 14 11 12 16 18 17 15 14 14 13 12 11 11 12 12 11 9 8 9 10 11 13 13 12 11 13 16 16 16 16 15 13 13 14 15 14 14 13 13 13 13 13 13 12 12 12 11 11 10 10 9 9 9 9 9 9 9 8 8 9 10 12 10 8 7 6 7 8 9 9 8 7 6
8 8 8 7 8 9 10 10 11 13 15 16 15 12 11 15 18 17 15 14 14 13 11 11 11 12 11 9 8 8 10 11 11 12 13 14 13 13 14 15 15 15 15 14 15 15 15 14 13 13 13 13 13 13 13 12 12 12 12 12 11 11 10 10 9 10 10 10 10 9 8 9 11 11 8 7 6 4 5 6 6 7 6 6 6
7 7 7 7 6 7 7 7 6 8 10 12 12 12 12 15 17 16 14 14 14 14 12 12 13 12 9 8 7 9 11 12 11 10 11 13 14 14 14 14 14 14 14 14 15 14 14 13 12 12 12 12 12 12 12 12 13 13 12 12 12 11 10 10 9 9 10 10 10 10 10 10 11 9 8 8 7 4 4 4 5 6 5 5 5
5 6 7 7 6 5 4 4 4 4 5 7 9 10 13 16 16 14 13 14 15 14 13 13 12 11 9 8 8 9 10 11 10 9 10 11 13 14 14 13 12 12 12 12 12 12 12 12 11 11 11 11 10 10 11 10 10 10 10 10 10 9 9 8 8 8 8 8 8 9 9 9 9 9 9 9 9 6 5 6 7 7 7 7 7
5 5 6 8 9 6 4 2 1 2 3 4 5 8 11 15 15 14 14 14 14 14 14 13 11 10 9 9 8 8 8 8 8 7 8 8 9 11 11 11 10 10 10 10 11 11 11 11 10 9 9 9 9 9 8 8 7 7 7 7 7 7 7 7 7 7 6 6 7 8 7 7 7 7 8 9 9 7 6 6 7 7 8 8 8
5 5 6 9 9 6 6 6 4 3 2 2 3 5 8 12 14 14 14 13 13 12 12 11 9 8 8 8 7 7 7 6 6 6 6 6 7 7 7 7 8 8 8 9 10 11 11 10 9 7 7 7 7 7 7 7 6 6 5 4 5 5 5 6 6 6 6 6 6 6 6 6 6 6 6 7 8 7 6 5 5 6 6 6 7
4 5 5 8 9 5 5 8 8 7 4 3 3 3 5 8 12 13 12 11 10 9 8 8 9 9 7 7 6 6 5 5 5 5 6 6 6 6 6 5 6 8 8 8 9 10 10 9 8 6 5 6 6 6 5 5 4 3 3 3 4 5 5 5 6 6 6 6 5 5 4 5 5 5 6 7 8 8 7 6 4 4 4 4 6
5 6 5 8 9 4 6 10 10 8 5 4 4 3 3 6 11 13 11 9 9 7 5 6 8 9 9 8 7 6 6 5 5 5 6 7 7 7 7 6 6 7 8 7 7 8 8 8 7 6 6 5 5 4 4 3 3 2 2 3 4 4 5 5 6 5 5 5 5 5 4 4 4 5 6 7 7 7 7 7 6 6 6 6 7
5 6 5 6 8 4 8 12 10 7 5 5 5 4 3 5 9 10 8 8 8 6 3 4 6 8 11 12 10 9 8 7 5 5 5 6 8 8 7 7 6 6 7 7 7 7 7 7 7 6 5 5 4 4 3 3 3 2 2 3 3 3 4 4 4 4 3 3 4 5 4 4 4 5 6 6 6 5 6 6 6 7 7 8 9
5 7 6 4 7 5 6 12 11 8 5 5 6 6 4 4 7 7 8 9 7 2 3 6 5 5 10 15 13 11 10 9 6 5 5 5 6 7 7 6 6 6 5 6 6 7 6 6 6 5 4 3 3 3 2 2 2 2 2 2 2 1 2 3 3 3 3 3 4 4 5 5 5 5 5 6 5 5 5 5 5 6 7 7 8
6 6 5 4 5 6 4 8 12 11 8 6 7 7 5 5 7 7 7 9 7 4 4 7 6 5 8 15 15 12 11 10 7 5 5 5 6 6 6 5 5 5 5 5 6 6 6 6 5 5 5 3 2 2 2 2 2 2 2 2 2 2 1 1 1 2 2 3 4 5 6 7 8 7 7 7 7 6 6 6 6 5 5 6 6
6 6 6 5 4 4 5 6 9 13 12 8 7 9 8 8 8 8 7 8 7 6 6 8 8 7 7 14 15 13 13 12 9 6 6 6 6 6 5 4 4 5 5 6 5 5 5 5 5 5 5 5 4 3 2 2 2 2 2 2 2 2 1 1 2 3 3 4 6 8 9 10 10 9 8 7 7 7 7 6 6 5 4 3 4
6 7 6 5 3 2 4 7 8 13 16 13 10 10 11 11 11 9 8 7 7 6 6 7 6 6 8 15 17 15 14 13 11 8 7 7 7 7 7 5 5 5 5 5 5 5 4 4 4 5 5 5 5 4 4 4 3 3 2 2 1 0 1 2 4 5 5 6 7 9 10 10 9 8 6 5 5 5 6 5 4 4 2 1 1
6 6 7 7 5 3 2 5 6 8 14 18 16 12 11 13 14 12 10 9 9 8 8 7 4 3 6 12 16 15 13 13 13 11 8 8 8 8 8 7 6 6 6 5 5 5 4 4 4 5 5 5 5 5 4 3 2 1 1 0 1 2 3 4 5 6 6 7 8 8 9 9 8 6 4 3 5 6 6 4 3 3 4 4 4
Wind_Direction
206 204 197 186 183 186 189 191 194 198 197 190 187 187 188 188 183 178 179 179 177 175 174 174 171 172 174 175 174 173 175 176 174 173 172 172 175 181 184 188 192 194 193 197 200 195 193 193 190 190 193 191 189 194 197 199 202 202 202 203 203 206 201 189 175 167 185 200 207 202 192 187 186 189 194 194 193 195 197 197 197 198 198 198 199
205 205 201 194 192 194 194 195 196 197 196 193 190 188 187 186 182 180 178 177 178 177 176 174 171 171 174 174 174 176 177 175 174 174 171 170 172 174 177 183 188 191 192 196 198 196 196 196 190 191 196 193 191 192 194 198 203 205 205 208 210 213 208 197 184 169 176 195 206 199 191 190 190 192 199 204 201 199 202 203 203 205 207 209 212
221 220 210 203 205 202 198 199 197 195 194 195 194 189 183 182 182 179 176 177 179 178 175 174 174 174 174 174 176 176 175 174 173 174 173 172 173 174 177 183 186 190 191 193 195 196 198 197 193 193 193 193 196 191 189 194 198 202 207 215 223 223 211 199 192 180 176 186 199 197 190 192 198 201 203 209 211 209 209 211 212 212 214 218 222
232 229 219 214 216 208 201 202 198 194 194 196 195 189 182 179 180 178 176 177 178 174 173 174 174 175 174 171 171 172 174 174 172 174 178 179 179 180 182 186 189 192 192 192 195 196 196 193 192 192 188 189 198 192 188 197 203 208 213 221 231 221 199 194 197 190 180 182 193 198 195 196 204 208 207 209 214 217 218 219 220 220 220 223 229
258 245 228 222 223 212 202 201 197 197 198 194 191 187 181 178 178 178 176 176 175 173 171 168 167 170 171 168 168 170 172 176 175 172 172 179 188 190 188 188 191 195 195 195 195 193 192 191 189 189 186 186 189 178 183 206 209 200 197 200 206 199 190 193 201 196 189 190 193 197 200 203 207 210 210 209 213 217 220 222 224 227 227 228 232
296 277 249 227 223 214 208 201 195 201 204 192 185 184 180 178 177 176 175 174 175 175 169 163 161 164 167 169 170 168 168 173 176 168 156 159 172 178 182 185 187 190 191 192 191 189 189 190 187 186 187 184 176 156 146 172 177 172 173 178 186 190 192 197 200 199 198 197 195 196 201 207 211 213 214 214 216 220 222 223 226 229 231 232 236
313 292 270 246 235 222 214 205 195 201 206 192 182 181 177 175 173 172 172 174 177 175 168 165 167 165 166 170 171 172 170 169 171 168 157 152 154 159 170 180 181 181 184 184 187 189 187 185 182 183 186 176 163 156 142 139 154 162 165 168 176 185 190 193 196 198 200 198 196 197 203 209 213 218 221 221 222 227 227 227 230 232 233 235 239
323 299 274 257 251 236 219 207 197 202 206 191 180 176 171 170 170 171 172 173 175 173 170 172 173 169 168 170 173 177 175 168 170 172 163 158 160 157 162 175 177 175 175 173 175 180 177 173 171 169 165 155 151 150 144 137 140 148 156 161 163 171 179 187 195 197 198 199 199 201 207 211 214 221 226 221 220 229 232 231 235 240 241 242 245
328 287 266 260 258 246 221 205 198 199 201 192 181 173 169 168 169 170 172 173 174 174 172 173 173 170 168 169 173 178 175 170 171 173 166 164 171 168 163 173 174 169 165 161 160 164 162 156 152 146 141 143 142 136 131 134 136 134 140 149 151 152 159 174 192 197 197 197 200 205 209 212 214 216 220 219 222 231 235 233 237 245 248 249 252
336 275 261 262 259 241 218 202 196 193 191 189 181 172 172 174 170 168 172 173 173 172 169 167 168 169 168 167 171 175 175 173 172 171 167 167 172 168 162 170 170 165 164 164 161 161 158 148 142 140 138 139 138 134 129 133 141 139 134 137 138 137 137 139 153 178 186 184 191 205 210 216 220 218 222 230 234 237 236 231 236 245 249 251 256
10 300 253 247 243 230 210 195 190 186 183 186 182 171 174 182 171 165 166 166 165 165 163 161 162 164 163 162 164 166 168 170 170 168 167 166 165 158 158 169 172 169 170 169 163 158 154 146 143 142 140 136 132 134 133 132 139 142 138 132 124 121 125 123 122 137 151 144 142 179 201 217 225 224 234 244 244 244 241 237 238 243 244 246 254
26 20 296 232 223 213 201 186 180 179 177 182 183 173 172 178 167 159 157 156 156 156 157 157 156 156 156 154 153 152 155 160 163 165 168 169 165 154 152 162 170 171 171 168 162 156 149 144 143 143 140 135 128 124 123 122 126 127 127 124 112 94 82 78 77 72 83 95 80 301 296 284 265 265 287 287 273 262 253 247 245 247 247 248 252
30 31 38 90 186 191 187 174 170 173 173 178 180 170 166 170 162 154 152 153 152 151 151 152 150 149 150 147 143 141 142 146 153 161 167 173 174 164 153 154 159 162 162 159 156 154 150 147 146 144 142 142 136 125 117 112 109 105 98 88 77 70 54 39 30 15 5 351 320 309 314 307 296 299 307 304 298 294 286 276 269 262 257 258 265
31 31 39 52 75 135 159 160 163 167 166 170 170 162 159 161 154 150 150 150 150 148 147 147 145 144 144 142 137 134 132 133 139 148 155 161 167 163 151 147 149 152 153 152 151 151 149 148 146 140 137 139 137 130 121 114 107 101 90 70 48 30 354 329 325 321 314 312 311 309 307 299 295 296 297 296 298 301 300 295 287 276 263 257 262
32 32 37 44 53 73 116 144 154 155 153 154 152 147 148 148 142 143 146 146 145 144 142 142 140 138 137 137 136 132 129 129 131 135 139 143 149 149 143 138 136 137 139 141 143 144 144 143 140 132 125 124 126 127 127 126 126 126 111 59 345 322 315 315 320 320 314 311 310 312 313 308 302 301 304 305 304 302 299 295 290 283 280 277 273
32 33 37 40 47 60 82 114 133 139 142 142 140 139 142 140 137 139 141 140 139 138 136 135 135 132 131 134 134 130 128 131 133 132 133 136 137 136 134 133 133 134 136 139 141 141 140 141 137 128 123 122 123 129 148 158 168 192 210 299 305 299 301 309 316 318 320 319 316 314 315 316 313 310 311 316 317 314 306 297 290 284 282 282 283
32 35 38 40 47 59 70 86 107 122 129 130 131 134 136 136 135 136 135 133 132 131 129 126 126 127 126 127 128 126 123 128 136 138 138 140 139 134 131 131 132 133 135 138 140 138 135 138 141 142 151 155 149 158 189 212 217 215 220 260 282 295 300 301 300 301 307 311 310 309 308 308 309 308 308 312 315 320 318 309 307 305 293 281 281
33 36 39 42 50 62 69 73 86 100 109 114 120 124 126 128 131 131 129 126 124 124 123 119 115 115 116 116 119 119 114 115 129 140 144 147 147 142 137 131 125 122 121 124 130 133 133 136 139 145 153 156 160 173 189 203 207 201 204 246 289 309 307 300 295 293 295 297 298 300 301 303 305 305 306 308 308 310 312 309 310 307 294 281 278
36 40 43 46 52 63 72 73 74 80 89 99 110 115 116 117 121 123 119 117 116 116 118 114 108 104 104 104 107 110 107 105 112 125 137 145 148 146 144 139 134 136 145 142 137 136 137 138 138 142 147 149 155 168 177 189 200 197 208 255 298 310 308 309 310 306 302 301 303 307 310 311 312 311 313 317 320 322 318 313 310 298 285 280 278
43 46 50 52 52 58 69 77 78 78 81 88 97 107 112 112 111 111 110 109 108 108 110 109 104 99 97 96 96 98 100 100 102 110 119 128 138 144 144 143 143 146 150 149 144 136 133 136 140 141 144 145 150 161 181 238 273 263 263 287 303 304 305 310 314 315 317 319 324 332 333 332 335 339 342 344 348 351 346 336 327 309 288 280 276
53 53 55 56 56 56 62 72 81 84 86 89 90 95 103 108 109 109 109 108 106 104 103 104 102 98 96 95 92 91 94 97 100 106 113 116 123 132 131 130 134 138 137 136 137 133 128 131 138 139 137 141 141 303 309 309 307 305 308 312 310 305 308 313 316 327 338 347 1 11 10 9 9 6 3 359 356 357 356 350 346 336 311 287 278
58 60 60 61 61 62 62 68 78 86 91 96 96 92 92 99 106 110 111 110 108 104 102 102 101 99 97 97 95 93 94 96 98 102 109 115 120 127 128 125 129 137 137 133 132 130 125 126 131 129 104 359 342 331 330 333 336 344 355 357 348 335 332 334 349 10 18 22 30 32 30 27 21 15 11 7 3 2 360 356 353 350 338 316 301
62 64 65 65 64 65 66 68 73 80 87 95 101 100 98 100 104 107 111 111 108 105 104 104 102 99 97 97 96 95 93 93 94 93 95 101 107 115 123 126 129 139 140 132 126 122 122 129 133 70 32 40 53 60 63 61 60 62 64 67 66 63 61 51 35 37 39 39 43 42 35 26 19 16 15 11 6 5 4 0 354 348 342 333 329
60 62 65 68 67 67 67 67 67 68 73 84 94 98 103 106 105 106 110 112 109 106 106 107 104 102 100 99 98 97 95 92 90 88 86 88 92 97 106 113 118 124 127 122 117 117 121 126 124 114 106 102 101 98 88 79 77 78 80 81 80 80 79 69 57 55 55 56 57 49 37 26 19 15 13 8 3 359 357 355 348 339 334 331 330
58 57 59 65 69 71 71 71 71 70 71 77 83 88 95 100 101 104 112 115 113 111 109 108 106 104 104 103 100 99 98 94 92 91 89 89 90 91 96 101 104 108 111 109 107 109 113 116 116 114 109 105 102 96 89 85 85 85 84 80 77 75 76 75 72 71 68 64 56 43 30 23 17 12 5 360 353 345 343 344 339 329 324 324 329
58 57 58 60 65 71 76 78 81 82 81 83 84 86 90 94 97 103 112 117 119 119 116 114 113 112 109 107 103 100 98 95 94 93 92 92 93 93 96 99 101 104 106 107 107 109 111 112 110 107 103 101 99 96 92 89 87 84 80 76 74 75 78 80 79 75 68 58 46 34 22 13 6 1 359 355 343 332 329 328 324 318 316 318 326
56 59 59 59 61 67 74 78 82 85 86 87 88 89 90 92 93 95 102 112 120 124 124 122 120 116 111 107 104 101 97 96 95 94 93 95 95 98 104 108 109 110 111 110 111 111 110 109 108 106 104 101 99 97 94 90 85 80 78 77 78 80 82 81 77 69 57 44 32 22 12 4 358 356 359 357 344 330 321 315 312 311 310 316 324
50 52 52 55 60 65 70 74 76 79 82 83 84 85 86 88 89 89 94 104 113 119 123 122 118 113 110 109 107 103 99 96 94 91 90 91 94 104 114 115 112 110 109 109 111 112 113 113 110 106 102 97 93 88 86 84 81 80 81 83 83 83 81 75 66 55 41 28 19 12 7 3 3 6 8 1 346 334 324 318 317 311 301 307 321
48 47 45 46 51 60 67 71 72 75 78 79 79 79 81 84 87 90 92 97 104 110 115 117 116 115 112 110 110 106 100 94 91 87 87 88 93 103 110 111 110 108 108 112 116 116 113 107 101 96 92 89 85 81 79 79 80 79 79 79 77 72 64 55 47 40 30 21 15 12 11 13 19 28 30 19 5 1 355 345 340 335 328 332 350
54 50 47 46 46 49 59 68 74 78 82 84 82 81 80 81 84 88 91 93 95 97 100 102 107 112 111 107 105 102 99 95 91 88 88 91 96 101 104 107 110 110 113 117 116 109 102 94 87 85 85 84 82 79 77 77 77 75 72 67 61 53 46 43 41 35 26 22 23 26 32 41 46 47 46 40 33 29 24 17 15 17 20 29 41
65 60 57 55 53 50 50 57 70 80 86 89 90 89 86 82 81 83 86 88 89 89 89 91 93 96 100 102 102 101 100 98 96 95 98 100 101 101 102 104 107 109 114 117 107 97 93 90 84 82 84 85 83 81 78 75 72 68 62 55 47 40 36 37 35 30 28 38 49 54 54 54 50 46 45 45 42 41 41 42 43 45 49 53 52
66 63 61 58 54 52 51 50 56 73 86 92 95 96 95 91 87 85 86 88 88 87 88 89 90 90 91 94 97 99 101 103 102 101 102 101 101 101 101 100 99 101 109 111 100 93 91 90 86 84 87 89 88 84 78 72 66 59 51 46 43 41 41 42 43 49 60 68 67 62 56 52 47 45 47 47 46 48 51 50 50 51 51 51 50
60 60 61 61 56 53 55 56 56 63 90 104 104 106 107 105 101 97 94 92 90 90 90 90 89 88 86 86 88 90 95 103 106 103 98 97 98 99 99 97 94 95 105 105 98 94 93 91 88 88 90 91 88 83 76 68 59 53 48 50 59 66 65 65 67 71 72 72 69 65 59 55 53 54 56 54 53 54 53 50 49 46 45 46 45
52 45 46 57 59 55 57 58 55 53 72 127 133 124 120 118 115 112 107 102 96 93 93 92 91 88 85 83 82 84 88 95 101 103 104 103 100 99 100 99 95 94 100 101 98 95 93 91 89 89 90 89 86 81 72 63 56 54 56 68 82 84 78 74 74 73 73 74 73 70 67 63 62 60 58 58 58 55 51 48 44 39 40 48 45
38 26 29 44 49 51 55 53 47 50 73 121 154 153 138 129 124 119 114 110 105 100 97 96 94 90 85 82 80 81 85 90 94 99 105 107 110 117 111 100 93 91 92 94 93 92 92 93 93 92 89 87 84 78 69 62 59 59 65 77 86 84 76 73 74 77 78 76 72 70 69 63 57 53 51 54 54 47 39 35 34 34 42 51 45
27 19 25 43 49 48 50 50 52 61 79 101 136 161 153 137 127 122 119 115 112 109 105 102 99 95 90 86 81 78 81 85 87 89 95 105 123 141 115 101 97 95 94 94 93 93 94 97 99 98 93 86 80 75 71 67 64 64 69 77 83 83 80 79 79 78 76 73 71 68 61 53 49 46 46 47 43 36 31 30 33 38 48 51 45
18 14 27 50 55 49 48 57 68 74 77 83 102 139 154 144 132 126 124 121 118 118 117 114 110 107 103 98 91 84 82 82 79 78 82 92 106 112 110 107 105 102 99 98 98 97 95 95 96 95 91 85 79 76 74 71 67 69 74 79 81 83 85 83 79 75 70 69 68 62 55 53 49 39 34 32 30 30 36 40 42 47 51 50 51
15 12 24 42 50 49 51 63 75 76 72 74 84 109 146 153 142 131 129 130 128 128 133 135 133 128 120 111 104 100 96 90 86 84 82 84 96 108 110 108 105 100 95 94 98 100 96 92 90 89 88 87 85 82 80 78 76 77 80 82 82 84 83 79 74 71 68 65 62 61 62 57 38 22 19 22 21 27 46 51 47 47 46 44 49
16 11 16 30 49 57 55 60 71 72 69 73 82 94 128 152 150 140 135 134 131 130 134 139 140 137 129 118 112 112 107 102 99 95 85 76 83 101 110 104 96 90 88 92 99 102 99 95 92 92 92 92 90 88 86 86 87 87 87 87 86 83 80 76 71 66 63 59 57 58 56 42 24 18 24 29 23 34 67 65 46 37 35 35 45
16 7 5 19 45 56 49 48 61 65 64 74 87 100 125 150 155 150 142 138 134 130 128 130 134 134 125 115 112 111 109 107 105 100 85 72 72 84 95 96 89 84 86 96 104 106 106 105 102 100 98 96 94 93 93 94 95 95 92 89 86 81 77 74 69 63 61 57 53 53 49 40 35 40 49 46 40 51 78 72 57 52 50 49 54
5 1 360 4 9 14 32 61 81 78 71 76 89 106 131 149 154 151 145 140 137 133 127 126 129 126 112 106 109 109 107 106 102 93 82 69 65 70 78 85 88 88 90 101 114 118 116 113 108 104 101 98 96 99 101 100 99 99 94 90 89 84 77 71 64 60 59 56 48 46 47 47 49 55 58 57 59 68 78 77 72 70 67 61 51
331 340 358 5 357 333 305 297 94 98 98 96 95 111 135 149 153 149 144 138 134 133 130 126 127 122 110 101 99 99 101 103 97 89 82 71 67 72 79 85 91 94 96 107 125 134 131 122 116 110 104 100 98 101 104 104 102 102 99 95 94 91 80 68 60 55 55 50 43 44 51 57 58 56 57 56 57 62 71 71 64 59 58 53 41
300 310 338 359 359 329 275 251 230 207 189 172 135 124 140 156 159 153 145 136 129 129 132 132 132 130 122 109 96 90 98 108 105 96 94 91 86 88 93 93 92 93 99 114 131 142 145 139 131 122 111 107 106 106 107 109 108 106 107 106 104 100 86 71 62 55 46 38 37 47 58 64 62 58 55 48 41 41 50 54 49 49 50 40 30
288 304 333 2 3 336 250 220 210 203 201 216 212 158 142 162 166 157 146 140 134 129 137 153 156 152 146 139 126 114 115 122 117 107 108 113 108 100 102 107 101 97 100 112 127 140 147 148 144 139 131 125 122 117 114 116 116 112 114 116 111 105 94 76 66 59 49 40 41 51 60 60 55 48 40 32 27 28 33 35 35 39 34 15 9
294 307 339 15 10 338 212 197 201 205 199 210 225 205 146 160 168 162 152 147 141 130 137 172 178 175 175 171 165 160 154 140 125 117 117 119 114 106 104 110 111 106 103 105 112 125 135 139 144 149 148 140 136 135 135 137 136 130 131 129 118 104 89 72 61 60 58 51 45 45 47 45 40 35 29 25 23 24 28 33 39 43 36 17 360
297 305 323 7 9 329 213 199 202 208 200 195 200 184 144 154 172 172 166 158 148 137 165 208 204 195 188 183 180 181 179 165 146 138 135 127 119 110 103 108 115 114 109 107 111 121 133 138 143 151 155 149 141 144 151 157 157 160 156 140 121 97 76 60 52 55 61 48 29 24 21 18 18 20 21 21 19 16 17 23 30 35 34 23 7
298 305 307 341 5 342 245 219 213 210 204 201 198 190 169 162 172 175 177 179 177 187 247 231 233 222 196 191 192 193 188 179 166 156 153 146 133 118 101 97 110 119 120 122 127 136 148 154 157 164 172 165 149 153 173 187 192 197 190 169 143 104 72 64 59 57 56 36 12 4 359 355 353 353 354 355 356 356 356 356 360 10 19 22 17
293 305 304 316 359 359 301 241 225 219 216 212 208 207 203 188 185 189 197 207 221 248 228 221 250 269 207 196 200 201 193 186 179 168 164 162 154 141 117 95 100 120 135 143 148 157 168 176 182 194 205 211 217 226 229 220 206 199 194 184 177 171 151 108 58 34 25 8 354 349 346 341 335 330 330 332 333 334 333 329 326 337 354 13 24
299 310 314 312 324 343 332 296 253 232 225 221 218 215 210 202 201 205 213 227 241 242 221 228 263 283 224 203 203 202 196 191 185 179 176 170 163 159 150 124 113 128 146 156 163 173 183 191 200 210 218 223 227 226 210 184 170 163 156 151 152 155 173 271 299 311 322 326 327 329 331 330 326 321 320 321 323 328 330 325 316 316 326 350 20
324 317 312 311 316 329 335 325 289 248 232 227 225 220 215 214 214 212 212 223 233 225 214 229 270 286 237 212 203 200 200 199 194 189 184 177 171 173 175 168 154 149 153 158 159 158 161 174 186 193 195 192 184 170 155 147 143 139 138 142 148 164 291 299 302 305 310 315 318 323 327 331 329 326 324 322 320 324 332 338 341 342 344 20 80
338 319 309 322 345 15 32 8 342 281 245 234 229 224 220 220 222 220 218 218 216 211 213 222 241 279 248 221 208 202 205 205 201 196 190 181 180 184 188 186 182 176 174 175 169 158 155 164 172 174 173 170 162 154 147 146 148 153 170 263 294 291 288 291 296 300 305 312 317 323 333 342 345 341 336 332 329 331 337 352 28 55 75 97 107